Mitchell, SD

4:27 AM CDT on May 25, 2018 (GMT -0500)
Mitchell Municipal

Weather History for KMHE - November, 2013

Change the Weather History Date:

Friday, November 8, 2013

  Actual Average Record
Temperature  
Mean Temperature 44 °F 39 °F  
Max Temperature 58 °F 49 °F 82 °F (1999)
Min Temperature 29 °F 28 °F -9 °F (1991)
Degree Days  
Heating Degree Days 21 26  
Month to date heating degree days 195 195  
Since 1 July heating degree days 778 836  
Cooling Degree Days 0 0  
Month to date cooling degree days 0 0  
Year to date cooling degree days 946 824  
Moisture  
Dew Point 34 °F    
Average Humidity 72    
Maximum Humidity 92    
Minimum Humidity 51    
Precipitation  
Precipitation 0.00 in 0.03 in 0.50 in (1950)
Month to date precipitation 0.29 0.32  
Year to date precipitation 25.56 20.61  
Snow  
Snow 0.00 in - 1.50 in (1983)
Month to date snowfall 2.6  
Since 1 July snowfall 2.6  
Since 1 September snowfall 2.6  
Snow Depth 0.00 in    
Sea Level Pressure  
Sea Level Pressure 29.79 in    
Wind  
Wind Speed 17 mph (SW)    
Max Wind Speed 30 mph    
Max Gust Speed 38 mph    
Visibility 10 miles    
Events      
T = Trace of Precipitation, MM = Missing Value Source: NWS Daily Summary

Daily Weather History Graph

Daily Weather History Graph

Search for Another Location

Airport or City:

Astronomy

Nov. 08, 2013 Rise Set
Actual Time 7:17 AM CST 5:13 PM CST
Civil Twilight 6:47 AM CST 5:44 PM CST
Nautical Twilight 6:12 AM CST 6:18 PM CST
Astronomical Twilight 5:39 AM CST 6:52 PM CST
Moon 12:14 PM CST (11/8) 10:36 PM CST (11/8)
Length of Visible Light 10h 56m
Length of Day
9h 55m
Waxing Crescent, 33% of the Moon is Illuminated
Nov 8
Waxing Crescent
Nov 9
First Quarter
Nov 17
Full
Nov 25
Last Quarter
Dec 2
New

Hourly Weather History & Observations

Time (CST) Temp. Windchill Dew Point Humidity Pressure Visibility Wind Dir Wind Speed Gust Speed Precip Events Conditions
12:53 AM 30.0 °F 21.1 °F 27.0 °F 88% 30.15 in 10.0 mi SSE 10.4 mph - N/A   Clear
1:53 AM 32.0 °F 22.5 °F 27.0 °F 82% 30.11 in 10.0 mi SSE 12.7 mph - N/A   Clear
2:53 AM 33.1 °F 23.0 °F 27.0 °F 78% 30.05 in 10.0 mi SSE 15.0 mph - N/A   Clear
3:53 AM 36.0 °F 27.1 °F 28.9 °F 76% 30.00 in 10.0 mi SSE 13.8 mph - N/A   Overcast
4:53 AM 37.9 °F 27.9 °F 30.0 °F 73% 29.94 in 10.0 mi SSE 19.6 mph 26.5 mph N/A   Scattered Clouds
5:53 AM 37.9 °F 27.3 °F 30.0 °F 73% 29.89 in 10.0 mi SSE 21.9 mph - N/A   Clear
6:53 AM 37.9 °F 27.1 °F 30.0 °F 73% 29.83 in 10.0 mi SSE 23.0 mph 29.9 mph N/A   Clear
7:53 AM 39.0 °F 28.3 °F 30.9 °F 73% 29.78 in 10.0 mi SSE 24.2 mph 31.1 mph N/A   Clear
8:53 AM 39.9 °F 29.0 °F 32.0 °F 73% 29.74 in 10.0 mi South 26.5 mph 34.5 mph N/A   Clear
9:53 AM 43.0 °F 34.8 °F 33.1 °F 68% 29.71 in 10.0 mi South 18.4 mph 32.2 mph N/A   Partly Cloudy
10:53 AM 46.0 °F 39.0 °F 35.1 °F 66% 29.69 in 10.0 mi South 17.3 mph 25.3 mph N/A   Clear
11:53 AM 50.0 °F - 37.0 °F 61% 29.65 in 10.0 mi South 17.3 mph 25.3 mph N/A   Clear
12:53 PM 50.0 °F - 37.0 °F 61% 29.62 in 10.0 mi South 11.5 mph 23.0 mph N/A   Clear
1:53 PM 57.0 °F - 39.0 °F 51% 29.60 in 10.0 mi WSW 10.4 mph - N/A   Clear
2:14 PM 57.2 °F - 37.4 °F 48% 29.60 in 10.0 mi West 20.7 mph 34.5 mph N/A   Clear
2:53 PM 57.0 °F - 39.9 °F 53% 29.63 in 10.0 mi WNW 24.2 mph 34.5 mph N/A   Clear
3:53 PM 54.0 °F - 39.9 °F 59% 29.68 in 10.0 mi WNW 24.2 mph 35.7 mph N/A   Clear
4:53 PM 53.1 °F - 37.9 °F 57% 29.70 in 10.0 mi WNW 21.9 mph 32.2 mph N/A   Scattered Clouds
5:53 PM 50.0 °F - 37.0 °F 61% 29.73 in 10.0 mi WNW 16.1 mph 23.0 mph N/A   Clear
6:53 PM 48.0 °F - 37.0 °F 66% 29.76 in 10.0 mi WNW 18.4 mph 27.6 mph N/A   Scattered Clouds
7:53 PM 46.0 °F 40.2 °F 36.0 °F 68% 29.76 in 10.0 mi WNW 12.7 mph - N/A   Clear
8:53 PM 46.0 °F 41.0 °F 36.0 °F 68% 29.78 in 10.0 mi West 10.4 mph - N/A   Overcast
9:53 PM 46.0 °F 39.6 °F 36.0 °F 68% 29.80 in 10.0 mi WSW 15.0 mph - N/A   Overcast
10:53 PM 45.0 °F 38.9 °F 34.0 °F 65% 29.81 in 10.0 mi WSW 12.7 mph - N/A   Clear
11:53 PM 45.0 °F 38.9 °F 33.1 °F 63% 29.83 in 10.0 mi West 12.7 mph - N/A   Clear